Location: Amberg
(48.0613°N, 10.6820°E)
Time: 07:37:59
(UTC+00:00)

CZ-4C R/B - Pass Details

Date: 18 November 2025
Orbit: 487 x 1492 km, 63.4° (Epoch: 06 December)

Event Time Altitude Azimuth Distance (km) Brightness Sun altitude
Rises 16:55:44 0° 277° (W) 2,969 6.4 -13.2°
Reaches altitude 10° 16:58:19 10° 294° (WNW) 2,200 5.2 -13.6°
Maximum altitude 17:02:14 22° 345° (NNW) 1,742 3.9 -14.3°
Enters shadow 17:06:53 10° 34° (NE) 2,693 4.4 -15.0°
